Regional Weather Roundup
Issued by NWS

Home | Current Version | Previous Version | Text Only | Print | Product List | Glossary On
Versions: 1 2 3 4 5 6 7 8 9 10 11 12 13 14 15 16 17 18 19 20 21 22 23 24 25 26 27 28 29 30 31 32 33 34 35 36 37 38 39 40 41 42 43 44 45 46 47 48 49 50
000
ASUS44 KJAN 281220
RWRMS

MISSISSIPPI HOURLY WEATHER ROUNDUP
NATIONAL WEATHER SERVICE JACKSON MS
700 AM CDT THU JUL 28 2016

NOTE: "FAIR: INDICATES FEW OR NO CLOUDS BELOW 12,000 FEET WITH NO
SIGNIFICANT WEATHER AND/OR OBSTRUCTIONS TO VISIBILITY.

MSZ001>002-007>008-010>013-018>021-025>028-034>036-281300-
NORTHWEST MISSISSIPPI

CITY           SKY/WX    TMP DP  RH WIND       PRES   REMARKS
CLEVELAND      CLOUDY    76  76 100 SW7       29.97S
GREENWOOD      CLOUDY    76  72  87 SW7       29.97S
6HR MIN TEMP:  76; 6HR MAX TEMP:  76;

GREENVILLE     CLOUDY    77  73  87 SW6       29.97R
6HR MIN TEMP:  76; 6HR MAX TEMP:  78; 6HR PCP: TRACE;

OXFORD         LGT RAIN  73  72  94 SW9       29.98R
WINONA         CLOUDY    75  73  93 SW5       29.99S
$$

MSZ003>006-009-014>017-022>024-029>033-037>039-281300-
NORTHEAST MISSISSIPPI

CITY           SKY/WX    TMP DP  RH WIND       PRES   REMARKS
ABERDEEN       PTSUNNY   77  59  53 S8        29.99R
COLUMBUS AFB   CLOUDY    76  73  92 S8        29.98R
6HR MIN TEMP:  75; 6HR MAX TEMP:  76;

GOLDN TRIANGLE SUNNY     73  68  83 SW7       29.99R
TUPELO         CLOUDY    76  72  87 S6        29.96R
6HR MIN TEMP:  75; 6HR MAX TEMP:  77; 6HR PCP:  0.20;

$$

MSZ040-058-281300-
CENTRAL MISSISSIPPI

CITY           SKY/WX    TMP DP  RH WIND       PRES   REMARKS
JACKSON INTL   MOCLDY    75  71  87 S7        30.01R
6HR MIN TEMP:  74; 6HR MAX TEMP:  75;

JACKSON HAWKNS CLOUDY    75  71  87 SW7       30.02R THUNDER
6HR MIN TEMP:  73; 6HR MAX TEMP:  75;

MADISON        PTSUNNY   73  70  88 S5        30.01R
MERIDIAN KEY   PTCLDY    74  71  91 S7        30.03S
6HR MIN TEMP:  74; 6HR MAX TEMP:  75;

MERIDIAN NAS   MOCLDY    75  69  81 CALM      30.03R
6HR MIN TEMP:  74; 6HR MAX TEMP:  76;

VICKSBURG VKS  PTSUNNY   77  73  88 S8        30.00S
$$

MSZ059>079-281300-
SOUTH MISSISSIPPI

CITY           SKY/WX    TMP DP  RH WIND       PRES   REMARKS
COLUMBIA       FAIR      72  72 100 CALM      30.08S
HATTIESBURG    CLEAR     75  72  90 VRB3      30.05R
6HR MIN TEMP:  73; 6HR MAX TEMP:  76;

MCCOMB         CLEAR     72  70  93 CALM      30.05R
6HR MIN TEMP:  71; 6HR MAX TEMP:  73;

NATCHEZ        CLOUDY    75  72  88 S5        30.02R
6HR MIN TEMP:  73; 6HR MAX TEMP:  75;

PINE BELT      CLEAR     73  70  88 S3        30.06S
6HR MIN TEMP:  70; 6HR MAX TEMP:  73;

$$

MSZ080>082-281300-
COASTAL MISSISSIPPI

CITY           SKY/WX    TMP DP  RH WIND       PRES   REMARKS
BAY ST LOUIS   CLEAR     72  70  94 CALM      30.04
BILOXI         PTCLDY    81  78  91 SW8       30.03S HX  90
6HR MIN TEMP:  78; 6HR MAX TEMP:  82;

PASCAGOULA     PTCLDY    74  74 100 CALM      30.04S
6HR MIN TEMP:  72; 6HR MAX TEMP:  74;

GULFPORT       PTCLDY    76  73  91 CALM      30.03S
6HR MIN TEMP:  74; 6HR MAX TEMP:  77;

$$

LAZ007>009-015>016-023>026-281300-
NORTHEAST LOUISIANA

CITY           SKY/WX    TMP DP  RH WIND       PRES   REMARKS
BASTROP        CLOUDY    77  76  98 W5        29.99S
TALLULAH/VBURG LGT RAIN  77  74  90 VRB3      29.99S
6HR MIN TEMP:  76; 6HR MAX TEMP:  77; 6HR PCP:  0.04;

VIDALIA        FAIR      75  74  96 SW5       30.04R
$$




USA.gov is the U.S. government's official web portal to all federal, state and local government web resources and services.